Airfield :
LOGIN :

Register | Disclaimer

   EN    FR    IT 

 










Legend :    VFR   Marginal VFR   IFR   Intensive IFR   Very Intensive IFR
Visi :
Ceiling :
>= 8 km
>= 3000ft
5 to 8 km
1000 to 3000 ft
1500m to 5 km
500 to 1000 ft
800 to 1500m
200 to 500 ft
< 800m
< 200 ft
Symbols :   Thunderstorms  Fog  Heavy snow  Heavy precipitations  Wind > 20 kt
SIGMETs :     Misc.  Thunderstorms  Icing  Turbulence  Mountain Waves  Volcanic Ashes







- Airport Elevation : 278 ft
- IATA code : RJK


LDRI - Rijeka

CURRENT METAR :
  • 210300Z 06006KT 9999 SCT043 09/03 Q1010

EXPIRED METARs :
  • 210230Z 06005KT 9999 SCT043 09/03 Q1009
  • 210200Z VRB02KT 9999 SCT043 10/04 Q1009
  • 210130Z VRB01KT 9999 SCT043 09/04 Q1009
  • 210100Z 07004KT 9999 SCT043 09/04 Q1008
  • 210030Z 07008KT 9999 SCT043 09/03 Q1008

TAF TAF LDRI
Valid from the 21 at 00:00 until the 22 at 00:00 UTC


202325Z 2100/2200 06010KT 9999 BKN030 TX11/2113Z TN07/2104Z
No reported NOTAMs for that airfield.



MET'MAP, your aeronautical weather chart ! - Copyright ORBIFLY December 2007 - Disclaimer

ORBIFLY MET'MAP TEAM :

Programming & Development : Alexandra Zaïnal
Concept & Development : Baudouin d'Aumeries
Co-Development & Prog : Marc-Olivier Méhu
Technical & hardware support : Manuel Goepfert

Contact : metmap@orbifly.com




SOURCES & CREDITS :

   NOAA